www.pogodaiklimat.ru

Погода и климат >> Архив погоды >> Португалия >> Санта-Мария


ПОГОДА в Санта-Марии

  • Прогноз погоды в Санта-Марии
  • Монитор погоды в Санта-Марии

АРХИВ ПОГОДЫ в Санта-Марии

Время (UTC), дата Ветер
(напр.,м/с)
 
Видим.   Явления Облачность Т
(С)
Тd
(С)
f
(%)
Тe
(С)
Тes
(С)
Комфортность P
(гПа)
Po
(гПа)
Тmin
(С)
Tmax
(С)
R
(мм)
R24
(мм)
S
(см)
00 14.04 ЮВ 2 15 км слаб. дождь 9/5 450 м
[Cu Sc Ac As]
+12.3 +12 +12 1013.0 1002.1 2
03 14.04 С 3 н/о {дождь} н/о +11.6 +11 +11 1010.2 999.3 4
06 14.04 С 6 н/о н/о +11.6 +10 +10 1009.4 998.5 +11.3 26
09 14.04 30 км н/о +13.4 1010.7 999.9
12 14.04
{12}
30 км н/о +15.9 1012.6 1001.8 1
15 14.04 З 9 >70 км 8/8 800 м
[Cu Sc]
+16.0 +14 +15 1013.3 1002.5
18 14.04 СЗ 10
{17}
50 км 5/5 900 м
[Sc diur, vesp]
+15.4 +14 +14 1014.2 1003.4 +17.4 1
21 14.04 СЗ 8
{14}
30 км 5/5 800 м
[Cu Sc]
+13.6 +8.7 72 +11 +11 1016.1 1005.2
00 15.04 С 6
{12}
н/о н/о +13.4 +7.9 69 +11 +11 1017.6 1006.7
03 15.04 30 км н/о +13.6 +7.0 64 1017.4 1006.5
06 15.04 -9
{10}
30 км н/о +14.2 +8.9 70 1016.3 1005.4 +13.0
09 15.04 З 9 30 км 5/4 840 м
[Sc diur, vesp Ci sp]
+15.1 +8.0 63 +13 +13 1016.3 1005.5
12 15.04 ЮЗ 10-16
{16}
25 км 9/8 660 м
[Cu Sc Ci sp]
+15.5 +11.4 77 +13 +13 1015.4 1004.5
15 15.04 ЮЗ 11-17
{18}
20 км 9/6 600 м
[Cu Sc Ci fib]
+16.6 +12.2 75 +15 +15 1012.3 1001.6
18 15.04 СЗ 13-20
{20}
20 км 9/8 540 м
[Cu Sc Ac trans Ci fib]
+16.0 +12.8 81 +14 +14 1009.7 998.9 +17.1
21 15.04 ЮЗ 13
{20}
15 км 9/9 360 м
[Cu Sc]
+16.4 +16.4 100 +14 +14 1007.4 996.7
00 16.04 ЮЗ 13
{26}
9000 м слаб. дождь 9/9 200 м
[Cu Sc]
+15.6 -28.6 3 +13 +13 1004.2 993.5 6
03 16.04 З 10
{17}
н/о {дождь} н/о +14.1 +12 +12 1003.5 992.8
06 16.04 С 15 н/о {дождь, ливн. осадки} н/о +14.7 +10.3 75 +12 +12 1002.6 991.9 +12.2 12
09 16.04 З 13 15 км 6/6 720 м
[Cu Sc]
+15.3 +10.6 74 +13 +13 1004.3 993.6
12 16.04 С 12
{21}
н/о н/о +16.4 +10.7 69 +14 +14 1006.0 995.4
15 16.04 СЗ 13
{20}
20 км 5/5 840 м
[Cu Sc]
+17.0 +10.0 63 +15 +15 1006.4 995.8
18 16.04 СЗ 13 20 км 6/6 800 м
[Cu Sc]
+15.9 +10.2 69 +14 +14 1008.2 997.5 +17.6
21 16.04 С 9
{19}
20 км 5/5 700 м
[Cu Sc]
+13.5 +10.2 80 +11 +11 1010.8 999.9
00 17.04 СЗ 8-13
{14}
17 км в посл. час ливневой дождь 6/6 660 м
[Cu Sc Ac lent]
+12.9 +8.6 75 +10 +10 1012.8 1001.9 0.1
03 17.04 нст 7
{14}
20 км 5/5 720 м
[Cu Sc Ac lent]
+13.3 +8.6 73 +11 +11 1013.0 1002.1
06 17.04 СЗ 8
{13}
20 км 6/6 700 м
[Cu Sc]
+13.6 +9.0 74 +11 +11 1013.8 1003.0 +12.6 0.1
09 17.04 СЗ 7
{12}
>70 км 6/5 800 м
[Cu Sc Ci fib]
+14.8 +9.7 71 +13 +13 1015.8 1005.0
12 17.04 СЗ 7
{11}
>70 км 3/1 900 м
[Cu hum Ci fib]
+17.2 +9.0 59 +16 +20 1017.1 1006.3
15 17.04 СЗ 8 >70 км 8/3 800 м
[Cu hum Ac trans Ci fib]
+16.9 +9.8 63 +16 +17 1018.0 1007.2
18 17.04 З 7 >70 км 6/4 660 м
[Cu hum Ac lent Ci sp]
+16.7 +10.5 67 +15 +16 1018.6 1007.8 +18.1
21 17.04 С 5 н/о н/о +15.5 +11.8 79 +14 +14 1020.2 1009.3
00 18.04 З 5 20 км 9/9 240 м
[Cu Sc]
+15.4 +14.1 92 +14 +14 1021.4 1010.5
03 18.04 З 6 20 км 9/9 100 м
[]
+16.0 -29.3 3 +15 +15 1020.7 1009.9
06 18.04 С 4
{7}
20 км н/о +15.7 +15 +15 1021.1 1010.2 +15.2
09 18.04 З 3 17 км 9/9 330 м
[Cu Sc Ci fib]
+16.8 +17 +17 1022.5 1011.6
12 18.04 З 2 20 км 9/9 150 м
[Cu Sc]
+18.2 +19 +20 1023.7 1012.9
15 18.04 З 4
{6}
20 км 9/9 240 м
[Cu Sc Ci fib]
+19.2 +19 +20 1023.7 1012.9
18 18.04 З 2 20 км 1/1 600 м
[Cu Sc Ci fib]
+19.0 -27.2 3 +19 +23 1023.6 1012.8 +19.7
21 18.04 20 км н/о +16.0 1025.3 1014.4
00 19.04 20 км н/о +16.5 1026.3 1015.4
03 19.04 ЮВ 1 20 км 9/9 150 м
[Cu Sc]
+16.2 +17 +17 1025.9 1015.0
06 19.04 ЮВ 1 20 км 9/9 150 м
[]
+16.2 +16.0 99 +17 +17 1025.6 1014.7 +15.3
09 19.04 ЮЗ 1 20 км 1/1 540 м
[Cu Sc Ci fib]
+17.2 +18 +22 1026.2 1015.4
12 19.04 ЮЗ 2 20 км 6/6 360 м
[Cu Sc]
+19.5 +19 +25 1027.3 1016.6
15 19.04 20 км н/о +18.9 1026.9 1016.1
18 19.04 С 2 н/о н/о +17.7 -26.7 3 +18 +18 1027.0 1016.2 +20.4 1
21 19.04 ЮВ 3
{5}
25 км 9/9 450 м
[Cu Sc]
+17.1 +17 +17 1027.9 1017.0
00 20.04 ЮВ 3 30 км 9/9 420 м
[Cu Sc]
+16.3 +16 +16 1028.2 1017.3
03 20.04 В 1 30 км 9/5 450 м
[Cu Sc Cs]
+15.0 +16 +16 1027.3 1016.4
06 20.04 В 3
{5}
20 км 1/1 450 м
[Cu Sc Ci fib]
+14.5 +14 +14 1026.8 1015.8 +14.5
09 20.04 25 км н/о +16.7 1027.3 1016.4
12 20.04 25 км н/о +19.0 1028.2 1017.3
15 20.04 СВ 6
{10}
30 км 8/8 300 м
[Cu Sc]
+19.2 +18 +19 1027.7 1016.9
18 20.04 СВ 8 30 км 6/5 420 м
[Cu Sc Ac cuf]
+18.5 +13.9 75 +18 +19 1027.2 1016.4 +19.9
21 20.04
{14}
25 км 8/6 300 м
[Cu Sc Ci fib]
+16.0 +13.0 82 1027.5 1016.6

 

Местоположение метеостанции Санта-Мария (Португалия): широта 36.97 долгота -25.16 высота над уровнем моря 100 м.

В архиве по умолчанию представлена погода в Санта-Марии за последнюю неделю. Архивные данные за месяц целиком и за предыдущие месяцы, начиная с января 2011 года, Вы можете получить, выбрав интересующий диапазон дат из раскрывающегося списка и нажав кнопку "Ввод!".


*Определитесь, кто Вы:
робот инопланетянин человек

Внимание! Время в таблицах - всемирное. Для получения местного времени необходимо прибавить поправку, которая равна 0 ч.

Смотрите также архив погоды в соседних городах и на ближайших метеорологических станциях:

Погода в Понта-Делгаде (Португалия) (97 км)
Погода в Ангра-ду-Эроижму (Португалия) (261 км)
Погода в Аэропорту Лажеша (Португалия) (263 км)
Погода в Сан-Жоржи (Португалия) (324 км)
Погода в Пико (Португалия) (338 км)
Погода на Острове Грасьоса (Португалия) (344 км)
Погода в Орте (Португалия) (350 км)
Погода в Каштелу-Бранку (Португалия) (357 км)
Погода на Флошише (Португалия) (590 км)
Погода в Фуншале (Португалия) (895 км)

Пояснения к столбцам:

Ветер - указаны скорость ветра в м/с - средняя за 10 мин, порывы в срок и между сроками (в фигурных скобках) и направление, откуда дует ветер: С - северный, СВ - северо-восточный, В - восточный, ЮВ - юго-восточный, Ю - южный, ЮЗ - юго-западный, З - западный, СЗ - северо-западный.
Видимость - горизонтальная дальность видимости в метрах или километрах. При видимости от 1 до 10 км при отсутствии осадков обычно наблюдается дымка, при ухудшении видимости до 1 км и менее - туман. В сухую погоду видимость может ухудшаться дымом, пылью или мглою.
Явления - указаны атмосферные явления, наблюдавшиеся в срок или в последний час перед сроком; фигурными скобками обозначены явления, наблюдавшиеся между сроками (за 1-3 часа до срока); квадратными скобками обозначены град или гололедные отложения с указанием их диаметра в мм.
Облачность - указаны через наклонную черту общая и нижняя облачность в баллах и высота нижней границы облаков в метрах; квадратными скобками обозначены формы облаков: Ci - перистые, Cs - перисто-слоистые, Cc - перисто-кучевые, Ac - высококучевые, As - высокослоистые, Sc - слоисто-кучевые, Ns - слоисто-дождевые, Cu - кучевые, Cb - кучево-дождевые. Подробнее классификацию облаков см. в Атласе облаков (PDF).
T - Температура воздуха - температура, измеренная на высоте 2 м над землей.
Td - Температура точки росы - температура, при понижении до которой содержащийся в воздухе водяной пар достигнет насыщения.
f - Относительная влажность воздуха - влажноcть воздуха, измеренная на высоте 2 м над землей.
Te - Эффективная температура - температура, которую ощущает одетый по сезону человек в тени. Характеристика душности погоды. При расчете учитывается влияние влажности воздуха и скорости ветра на теплоощущения человека.
Tes - Эффективная температура на солнце - температура, которую ощущает человек, с поправкой на солнечный нагрев. Характеристика знойности погоды. Зависит от высоты солнца над горизонтом, облачности и скорости ветра. Ночью, в пасмурную погоду, а также при ветре 12 м/с и более поправка равна нулю.
P - Атмосферное давление - приведенное к уровню моря атмосферное давление.
Po - Атмосферное давление - измеренное на уровне метеостанции атмосферное давление.
Tmin - Минимальная температура - минимум температуры воздуха на высоте 2 м над землей.
Tmax - Максимальная температура - максимум температуры воздуха на высоте 2 м над землей.
R - Количество осадков - Количество выпавших осадков за период времени, мм. При наведении курсора мыши на число - период времени, за который выпало указанное количество осадков.
R24 - Количество осадков - Количество выпавших осадков за 24 часа, мм.
S - Снежный покров - Высота снежного покрова, см. При наведении курсора мыши на число - состояние снежного покрова и степень покрытия местности в баллах.